Home   Weather   Billings   Past weeks

Flag for USA Past Weather in Billings, Montana, USA — Yesterday and Last 2 Weeks

Now
24 °F

Overcast.


Feels Like: 14 °F
Forecast: 21 / 28 °F
Wind: 9 mph from North

Location: Billings Logan International Airport

Current Time: Feb 27, 2017 at 12:28:19 am

Latest Report: Feb 26, 2017 at 11:53 pm


Visibility: 10 mi

Pressure: 29.70 "Hg (26.33 "Hg at 946m altitude)

Humidity: 77%

Dew Point: 18 °F

Location of BillingsLocation

Past Weather in Billings — Graph

°F

Billings Temperature Yesterday

Maximum temperature yesterday: 36 °F (at 1:53 pm)
Minimum temperature yesterday: 22 °F (at 1:53 am)
Average temperature yesterday: 28 °F

High & Low Weather Summary for the Past Weeks

 TemperatureHumidityPressure
High62 °F (Feb 21, 12:53 pm)100% (Feb 22, 7:37 pm)30.48 "Hg (Feb 22, 7:37 pm)
Low21 °F (Feb 12, 6:53 am)22% (Feb 21, 12:53 pm)29.43 "Hg (Feb 19, 10:53 am)
Average38 °F60%29.88 "Hg
* Reported Feb 11 10:53 pm — Feb 26 10:53 pm, Billings, Weather by CustomWeather, © 2017

Note: Actual official high and low records may vary slightly from our data, if they occured in-between our weather recording intervals... More about our weather records

Advertising

Billings Weather History for the Previous 24 Hours

Scroll right to see more
 ConditionsComfort  
Time TempWeatherWind HumidityBarometerVisibility
10:53 pm
Sun, Feb 26
24 °FPartly cloudy.8 mph81%29.70 "Hg10 mi
9:53 pm26 °FPassing clouds.5 mph74%29.71 "Hg10 mi
8:53 pm26 °FPassing clouds.6 mph77%29.73 "Hg10 mi
7:53 pm27 °FPassing clouds.8 mph75%29.75 "Hg10 mi
6:53 pm28 °FPartly cloudy.10 mph75%29.76 "Hg10 mi
5:53 pm30 °FBroken clouds.14 mph69%29.76 "Hg10 mi
4:53 pm31 °FPartly sunny.14 mph69%29.75 "Hg10 mi
3:53 pm34 °FBroken clouds.5 mph44%29.75 "Hg10 mi
2:53 pm34 °FCloudy.3 mph38%29.76 "Hg10 mi
1:53 pm36 °FPartly sunny.6 mph35%29.78 "Hg10 mi
12:53 pm34 °FScattered clouds.3 mph37%29.80 "Hg10 mi
11:53 am33 °FBroken clouds.12 mph41%29.83 "Hg10 mi
10:53 am31 °FBroken clouds.9 mph41%29.84 "Hg10 mi
9:53 am29 °FBroken clouds.10 mph49%29.85 "Hg10 mi
8:53 am26 °FPartly sunny.12 mph55%29.85 "Hg10 mi
7:53 am23 °FPartly sunny.12 mph63%29.85 "Hg10 mi
6:53 am22 °FPassing clouds.15 mph62%29.83 "Hg10 mi
5:53 am23 °FPassing clouds.9 mph63%29.82 "Hg10 mi
4:53 am28 °FOvercast.17 mph53%29.80 "Hg10 mi
3:53 am24 °FOvercast.13 mph57%29.82 "Hg10 mi
2:53 am25 °FPassing clouds.10 mph55%29.81 "Hg10 mi
1:53 am22 °FPassing clouds.9 mph66%29.81 "Hg10 mi
12:53 am23 °FPassing clouds.12 mph63%29.79 "Hg10 mi
Weather by CustomWeather, © 2017

See weather overviewHow to use our weather pages